KAZSAT-3

Last updated on Sun Apr 12 2026 00:02:53 GMT+0000 (Coordinated Universal Time)

1 39728U 14023B 26101.53230411 .00000062 00000+0 00000+0 0 9994 2 39728 0.0451 53.5383 0000468 34.0434 2.2929 1.00271608 41783
UTC large
Height (km)
Speed (km/s)
/
Latitude / Longitude
Inclination (degrees)
Orbital Period (minutes)
Azimuth
Elevation
Range (km)
Doppler Factor

Next 0 passes for location: London (51.5072 / 0.1276)

Sorry there are no passes over London.
KAZSAT-3